Probability
0 0 0 0 0 0 0 0 0 0 0 0 0 1 1 2 2 5 9 12 12 12 14 16 16 18 25 33 36 29 22 23 22 15 10 11 12 11 10 10 11 9 7 7
0 0 0 0 0 0 0 0 0 0 0 0 0 1 2 3 3 5 11 15 15 15 18 20 20 21 25 34 37 31 25 25 24 17 11 11 12 11 11 13 14 12 10 9
0 0 0 0 0 0 0 0 0 0 0 0 0 2 5 6 4 6 13 18 19 21 25 26 25 24 26 32 36 33 31 29 26 21 15 12 13 13 14 17 19 18 14 12
0 0 0 0 0 0 0 0 0 0 0 0 0 2 6 7 5 6 11 15 20 25 30 31 30 28 29 32 36 39 39 35 30 24 19 14 13 13 14 17 21 21 19 16
0 0 0 0 0 0 0 0 0 0 0 0 0 1 5 8 6 6 7 10 17 25 31 35 36 35 35 37 42 46 47 43 36 29 23 19 15 14 15 16 19 22 21 20
0 0 0 0 0 0 0 0 0 0 0 0 0 1 4 7 8 7 7 8 14 23 32 38 42 43 42 43 46 50 53 51 43 34 28 25 22 20 19 19 20 22 23 23
0 0 0 0 0 0 0 0 0 0 0 0 0 1 4 8 8 7 7 8 12 21 30 38 44 47 46 46 46 49 56 55 48 41 35 32 30 26 24 23 24 23 22 22
0 0 0 0 0 0 0 0 0 0 0 0 0 3 7 8 7 6 7 8 12 19 26 35 44 48 47 46 44 47 55 57 52 47 43 39 36 30 28 29 27 24 20 18
0 0 0 0 0 0 0 0 0 0 0 0 1 6 10 10 7 7 8 9 12 17 23 31 40 46 46 44 43 47 55 58 54 50 49 46 42 37 36 36 32 27 24 21
0 0 0 0 0 0 0 0 0 0 0 0 2 6 10 11 10 9 10 12 14 15 20 29 37 41 40 39 41 47 55 60 56 52 50 48 46 44 41 39 37 34 32 31
0 0 0 0 0 0 0 0 0 0 0 0 1 5 8 11 11 11 13 16 19 18 20 30 37 38 36 36 40 46 54 60 59 55 51 49 48 46 42 39 38 38 38 40
0 0 0 0 0 0 0 0 0 0 1 0 1 4 7 9 12 13 15 21 25 24 25 32 37 39 39 39 42 47 53 58 57 55 53 50 49 46 44 41 40 39 42 45
0 0 0 0 0 0 0 0 0 0 1 1 2 4 7 10 13 15 20 27 32 34 34 36 40 43 43 45 48 49 52 54 53 53 52 51 48 48 47 46 43 43 46 49
0 0 0 0 0 0 0 0 0 0 1 2 4 7 10 13 16 19 25 32 37 42 44 44 47 48 49 53 55 54 51 51 51 51 53 53 52 51 51 49 47 47 50 51
0 0 0 0 0 0 0 0 0 0 1 3 5 8 12 16 19 23 29 35 38 43 45 47 49 52 54 57 60 58 54 52 54 55 56 58 57 55 53 51 49 50 51 51
0 0 0 0 0 0 0 0 0 0 1 3 5 7 12 16 21 26 32 36 39 40 41 43 46 50 54 57 58 57 55 54 57 59 60 60 60 56 52 50 50 51 50 50
0 0 0 0 0 0 0 0 1 1 2 4 7 9 12 16 20 27 34 37 38 37 37 39 43 46 50 53 52 50 50 51 54 57 60 60 58 55 52 52 52 52 50 48
0 0 0 0 0 0 0 0 1 2 2 5 9 11 13 15 18 25 32 36 35 33 34 39 42 43 44 46 46 44 42 43 47 52 55 57 55 53 54 54 53 52 49 47
0 0 0 0 0 0 0 0 1 2 3 6 9 13 14 14 16 22 29 34 33 32 34 38 39 38 39 42 44 41 38 37 42 47 50 51 50 49 52 52 50 49 48 46
0 0 0 0 0 0 1 1 1 2 4 7 11 16 18 17 17 22 29 34 34 34 34 34 33 34 38 43 46 44 40 38 40 44 47 47 46 45 46 46 44 43 44 44
0 1 1 1 1 1 2 2 3 6 8 11 16 21 24 25 25 28 32 34 34 33 31 29 29 32 38 43 47 47 44 41 41 44 46 47 46 43 40 40 40 39 39 40
1 1 2 2 3 4 6 7 9 13 15 16 17 21 26 29 30 31 31 31 31 31 29 28 29 33 39 44 47 48 46 43 43 44 44 44 45 43 40 39 38 38 38 38
0 1 2 3 5 7 9 10 12 15 17 16 16 18 23 26 27 28 29 28 29 29 28 28 30 34 39 44 47 48 47 46 44 43 42 42 43 43 42 40 37 37 38 38
1 1 1 3 5 5 6 8 10 12 13 13 14 16 19 22 24 26 28 28 29 29 28 29 32 34 38 41 44 46 47 46 45 43 42 42 42 41 42 41 36 33 34 35
3 2 2 3 4 4 4 6 8 10 10 10 12 15 18 20 23 25 26 27 29 30 29 31 33 35 36 38 40 40 43 44 44 45 43 41 39 38 39 37 31 25 24 25
3 3 2 2 4 6 6 6 8 9 8 8 10 14 17 19 21 23 24 25 26 28 28 30 33 34 36 38 37 37 39 41 43 44 43 38 35 37 38 34 24 17 14 14
Wind_Speed
13 13 12 12 13 12 11 10 10 7 4 5 5 6 10 12 12 12 12 12 12 11 12 11 11 11 11 9 8 7 6 6 5 4 4 4 4 4 4 4 5 5 4 5
13 16 14 13 13 12 12 12 11 7 6 7 6 5 6 9 11 12 13 13 13 13 13 12 11 11 11 10 9 8 7 7 6 4 3 3 4 4 4 4 5 5 5 5
16 12 12 13 13 12 12 13 11 8 8 9 9 7 6 7 8 11 12 13 13 14 14 13 12 12 12 12 11 9 8 7 7 5 4 3 3 3 4 4 5 5 5 5
15 14 12 12 13 13 12 12 12 11 10 8 9 6 4 6 8 9 12 13 13 13 14 14 13 12 12 12 11 9 8 7 6 6 5 5 4 4 4 4 5 6 6 6
13 11 12 13 12 12 12 11 12 12 12 12 10 8 5 6 8 8 8 11 12 12 14 14 14 12 12 12 11 10 8 7 6 6 5 5 4 3 3 4 5 5 5 6
14 12 12 12 12 12 12 12 13 12 10 12 12 11 5 5 6 5 5 7 10 12 12 13 13 11 10 11 11 10 9 7 7 6 5 5 5 4 4 4 5 5 4 5
14 14 13 11 12 12 13 11 9 10 9 10 11 9 4 7 7 7 7 8 9 9 11 12 14 13 11 10 10 11 10 8 8 7 6 5 5 4 4 4 5 5 4 4
11 11 11 11 11 11 12 13 10 10 9 7 8 7 4 7 9 7 8 7 8 8 9 12 13 13 11 11 10 10 10 9 8 8 6 5 5 4 4 4 4 4 3 4
9 8 6 8 9 11 12 12 14 14 12 10 6 4 3 4 6 8 8 7 7 7 8 9 11 12 11 11 10 10 10 9 9 8 7 6 6 5 4 4 5 3 3 4
10 11 9 7 9 12 13 12 9 10 8 10 8 7 3 4 3 3 5 7 6 5 7 8 9 10 11 11 9 9 9 9 8 7 7 7 6 5 4 4 4 4 3 3
10 11 12 9 9 10 10 12 10 9 10 9 8 3 2 2 3 3 3 5 6 4 4 6 6 6 7 9 10 9 8 9 8 8 7 6 6 6 5 4 3 3 3 3
7 9 11 12 10 9 11 11 11 9 8 9 9 4 2 3 4 4 5 6 6 4 4 5 6 5 5 5 7 8 8 8 8 7 6 6 5 5 5 5 4 3 3 3
7 8 9 10 9 8 9 11 12 12 10 10 10 5 2 1 3 3 5 7 6 5 6 5 6 4 3 3 4 4 5 6 7 7 7 6 6 5 5 5 4 4 3 3
6 10 12 12 9 9 9 12 13 13 11 10 9 6 3 1 1 4 6 7 6 6 5 5 5 3 3 3 3 3 3 3 4 6 6 6 6 5 5 4 4 4 4 4
7 11 13 15 14 14 13 13 13 13 13 13 10 7 2 1 2 4 5 6 5 5 5 5 5 4 3 3 3 2 2 2 2 3 4 5 5 5 4 4 4 4 4 5
7 9 13 16 17 16 16 15 14 14 13 12 12 8 2 2 2 3 4 4 4 4 3 4 5 4 4 3 2 2 1 1 2 2 3 3 4 4 4 4 4 4 4 4
7 8 11 13 15 15 15 13 12 11 10 9 8 3 1 2 3 3 3 3 4 3 3 4 4 3 2 2 2 2 1 1 1 1 2 2 3 3 3 4 3 3 3 2
9 8 8 12 14 16 9 7 7 7 8 6 4 3 3 3 3 3 3 3 3 3 3 3 2 2 1 1 1 2 1 1 2 2 2 2 2 2 2 3 3 2 2 2
9 7 8 10 13 14 9 5 5 6 5 5 4 4 4 4 3 3 4 3 2 3 3 2 1 2 1 1 1 1 1 0 0 1 1 2 2 2 2 2 3 3 3 3
10 7 9 11 12 11 5 4 5 5 4 4 5 6 5 4 3 2 5 5 3 3 3 2 1 2 1 1 1 1 1 1 1 1 1 1 2 2 2 2 2 2 2 3
10 10 12 13 13 9 3 5 5 6 1 6 5 5 6 6 4 3 3 3 3 2 2 1 1 2 1 1 1 1 0 1 1 0 0 1 1 2 2 2 2 2 2 2
7 8 9 10 12 6 7 5 4 4 4 5 5 5 5 5 5 4 2 2 2 1 1 1 1 1 1 1 1 0 1 1 1 0 1 1 1 1 2 2 2 2 2 2
5 4 3 3 1 3 6 6 6 5 5 5 4 5 4 5 4 3 1 1 1 2 1 1 1 1 1 0 0 1 0 1 1 1 0 1 1 1 1 1 2 2 1 2
3 2 3 4 1 3 4 5 6 6 6 6 6 6 5 6 6 4 1 1 1 2 2 2 1 0 1 0 0 1 1 0 0 0 0 1 1 1 1 1 1 1 1 1
7 5 5 6 5 5 3 4 6 7 7 6 6 6 6 6 6 3 1 1 1 2 2 2 2 1 1 0 0 1 0 1 0 0 1 1 1 2 1 1 1 0 1 0
7 6 6 6 4 4 3 4 5 6 6 6 6 6 5 4 3 3 2 2 2 2 2 2 2 2 1 1 1 1 1 0 1 1 1 1 1 1 2 2 2 5 3 3
Wind_Direction
223 234 239 243 247 253 263 268 275 267 256 246 219 196 177 173 176 171 171 170 170 168 160 157 160 155 154 154 156 160 162 155 158 163 170 171 166 163 153 153 149 156 169 173
231 233 240 253 260 258 263 269 267 267 275 270 253 230 193 182 180 176 174 172 172 168 162 163 167 162 162 163 165 164 167 165 169 170 178 176 168 168 160 157 149 167 175 177
237 241 231 244 251 258 261 266 266 266 265 265 262 249 228 201 188 175 177 174 173 171 167 167 170 172 170 169 172 171 171 167 175 167 173 179 162 172 157 153 158 172 178 184
242 248 246 246 248 251 254 256 267 270 264 263 261 260 226 208 199 190 181 175 173 169 166 168 171 174 176 173 171 166 164 166 172 172 176 182 180 186 178 169 166 173 183 185
248 248 250 251 253 259 266 270 270 273 272 267 259 261 232 204 209 204 186 174 168 170 169 168 172 173 175 170 167 164 162 165 169 178 183 187 188 190 178 166 164 174 181 190
259 255 255 260 262 255 264 267 263 262 265 263 260 256 244 220 192 184 186 187 165 167 168 166 167 163 169 167 165 163 162 164 169 179 184 189 194 191 188 179 171 183 188 193
247 247 244 249 257 249 245 252 253 247 238 252 254 247 210 190 167 175 183 190 163 162 166 165 164 164 167 168 168 165 164 170 174 180 189 189 194 193 199 191 184 192 197 192
252 242 230 235 244 256 250 249 253 264 263 264 254 246 204 172 158 165 174 173 159 163 161 163 165 166 168 171 170 165 166 171 176 181 189 188 188 197 203 203 206 200 205 197
278 262 241 236 243 251 256 255 262 266 265 270 263 240 195 187 166 158 161 158 161 161 155 158 160 166 168 171 171 169 165 171 179 186 183 186 191 200 199 192 203 214 208 209
284 291 273 241 236 239 248 257 266 270 276 271 255 241 228 173 168 154 157 149 140 147 153 151 156 166 170 173 170 166 164 171 176 182 187 189 194 196 199 206 199 205 213 210
275 278 277 258 236 251 240 245 255 271 275 276 273 249 167 149 146 126 129 124 120 130 131 134 139 151 162 166 170 170 168 169 175 180 184 189 186 192 200 206 208 201 211 203
275 270 277 275 265 244 258 259 255 257 266 273 275 262 178 196 156 151 153 123 113 111 110 109 116 129 141 153 165 170 173 171 172 173 176 185 184 186 195 201 203 203 201 204
323 285 270 264 263 242 250 260 259 264 265 264 266 245 163 198 140 137 119 113 109 103 95 97 101 105 125 137 138 149 163 171 176 174 178 183 191 191 192 194 190 197 202 201
294 273 273 273 284 289 269 267 268 268 265 265 262 254 241 231 92 99 100 104 109 103 94 96 100 95 90 94 107 123 143 168 178 173 180 183 189 192 192 193 192 192 199 201
268 267 274 280 277 277 278 272 265 264 267 270 268 259 259 349 53 89 98 100 98 99 97 87 84 71 71 78 89 104 129 155 161 164 180 183 183 187 193 196 196 194 197 207
263 281 287 280 276 272 274 275 271 267 266 267 271 276 334 66 47 85 103 114 108 87 87 90 88 79 64 64 70 77 111 128 146 163 164 161 179 186 190 194 197 202 201 205
268 270 279 277 280 278 269 272 268 269 280 281 279 298 3 44 40 44 83 106 107 112 88 89 93 89 74 57 80 85 74 117 127 143 149 157 178 188 193 202 196 204 203 193
253 268 272 273 275 266 270 290 288 279 284 305 320 6 25 7 26 62 79 78 98 111 101 88 87 92 91 64 57 98 97 131 147 153 154 161 181 185 190 195 194 187 179 179
249 246 261 268 265 262 257 273 284 285 291 342 358 359 10 9 8 60 68 57 81 106 107 112 125 122 102 88 70 103 111 129 183 172 157 175 187 195 191 187 183 181 186 187
238 226 244 258 266 267 275 340 335 290 259 17 16 7 355 334 297 20 32 35 45 77 92 97 134 127 111 98 110 140 163 179 229 234 210 220 207 194 191 191 190 196 199 204
221 223 236 251 260 264 321 348 319 272 2 11 11 13 6 357 347 355 30 40 40 58 71 74 145 142 117 104 104 157 233 255 277 289 248 225 222 198 186 180 181 181 200 196
238 235 233 246 253 262 10 359 7 28 17 7 6 15 10 4 356 347 19 32 24 17 18 355 48 89 97 126 139 203 301 336 348 312 193 187 207 242 189 160 177 186 199 208
248 275 295 295 293 38 19 21 13 3 357 351 348 355 351 335 332 328 347 332 335 342 327 322 353 15 53 78 163 208 277 344 333 340 330 217 220 183 132 168 181 185 193 229
252 267 288 295 280 344 2 0 347 356 352 342 344 342 336 327 314 308 325 313 321 326 331 318 299 280 306 321 296 249 233 320 120 228 270 206 181 182 154 193 205 204 190 221
316 308 267 261 277 298 315 340 336 336 335 331 336 341 341 335 329 335 359 360 352 7 354 349 344 312 278 286 344 283 316 51 75 253 258 244 212 201 171 141 81 81 58 198
270 271 264 273 290 291 297 312 316 317 325 331 334 337 337 341 336 333 343 358 16 12 3 352 332 312 304 313 297 298 329 336 232 248 258 256 247 216 177 154 116 64 71 89